Location: Angwan Shehu
(11.2514°N, 7.4613°E)
Time: 05:53:53
(UTC+00:00)

SR - Pass Details

Date: 18 April 2021
Orbit: 573 x 882 km, 66.7° (Epoch: 12 May)

Event Time Altitude Azimuth Distance (km) Brightness Sun altitude
Rises 17:00:12 0° 347° (NNW) 3,333 ? 9.2°
Reaches altitude 10° 17:02:47 10° 352° (N) 2,357 ? 8.6°
Maximum altitude 17:08:02 51° 68° (ENE) 929 ? 7.3°
Drops below altitude 10° 17:12:49 10° 144° (SE) 2,157 ? 6.2°
Sets 17:15:05 0° 149° (SSE) 3,024 ? 5.6°
